User: anonymous   Login
Location: Wilsall
(45.9940°N, 110.6590°W)
Time: 08:15:23
(UTC-07:00)
Language:

GP-B - Orbit

View from above orbital plane
View from above orbital plane
View from above satellite
View from above satellite

Ground track
Ground track

The orbit data is extracted from the following two-line orbital elements,

1 28230U 04014A   17022.91918747 +.00000112 +00000-0 +13073-4 0  9994
2 28230 089.8556 124.7728 0002271 076.4822 283.6654 14.78505059144838
Epoch (UTC): 22 January 2017 22:03:37
Eccentricity: 0.0002271
inclination: 89.8556°
perigee height: 632 km
apogee height: 635 km
right ascension of ascending node: 124.7728°
argument of perigee: 76.4822°
revolutions per day: 14.78505059
mean anomaly at epoch: 283.6654°
orbit number at epoch: 14483

The dashed part of the orbit path shows where the satellite is in the earth's shadow,  

DLR